www.pogodaiklimat.ru

Погода и климат >> Архив погоды >> Украина >> Харьков


АРХИВ ПОГОДЫ в Харькове

Время (UTC), дата Ветер
(напр.,м/с)
 
Видим.   Явления Облачность Т
(С)
Тd
(С)
f
(%)
Тe
(С)
Тes
(С)
Комфортность P
(гПа)
Po
(гПа)
Тmin
(С)
Tmax
(С)
R
(мм)
R24
(мм)
S
(см)
12 19.09 З 4 10 км 3/0
[Ac trans]
+24.0 +9.0 38 +25 +28 комфорт 1021.1 1003.2
15 19.09 З 3 10 км 3/0
[Ci fib]
+24.1 +8.1 36 +25 +25 комфорт 1020.7 1002.8
18 19.09 З 1 10 км ясно +18.4 +8.6 53 +20 +20 тепло 1021.4 1003.1 +24.8
21 19.09 штиль 0 10 км ясно +14.8 +8.7 67 +15 +15 тепло 1021.4 1002.9
00 20.09 З 1 10 км ясно +12.6 +7.5 71 +13 +13 тепло 1021.3 1002.7
03 20.09 штиль 0 10 км ясно +12.3 +7.4 72 +12 +12 тепло 1021.4 1002.7
06 20.09 З 2 10 км ясно +17.2 +10.2 63 +18 +21 тепло 1021.1 1002.8 +12.0
09 20.09 СЗ 4 10 км ясно +25.3 +10.2 39 +26 +32 жарко 1020.1 1002.3
12 20.09 З 5 10 км ясно +27.7 +9.3 32 +28 +31 жарко 1018.6 1000.9
15 20.09 З 2 10 км ясно +24.9 +8.6 35 +25 +26 комфорт 1018.1 1000.3
18 20.09 З 2 10 км ясно +21.2 +11.3 53 +23 +23 комфорт 1018.9 1000.9 +27.7
21 20.09 СЗ 2 10 км ясно +17.4 +11.1 66 +18 +18 тепло 1019.3 1001.0
00 21.09 СЗ 2 10 км ясно +15.2 +11.1 77 +15 +15 тепло 1019.7 1001.3
03 21.09 СЗ 2 10 км ясно +13.3 +10.8 85 +13 +13 тепло 1020.6 1002.0
06 21.09 СЗ 1 10 км ясно +18.4 +12.9 70 +20 +23 тепло 1020.9 1002.7 +12.9
09 21.09 С 3 10 км ясно +25.5 +13.0 46 +27 +35 жарко 1020.6 1002.8
12 21.09 СВ 1 10 км ясно +27.9 +10.1 33 +28 +35 жарко 1019.6 1001.9
15 21.09 В 2 10 км ясно +26.2 +9.5 35 +27 +27 жарко 1019.2 1001.5
18 21.09 штиль 0 10 км ясно +20.5 +9.7 50 +22 +22 комфорт 1019.7 1001.6 +29.1
21 21.09 штиль 0 10 км ясно +16.4 +9.3 63 +16 +16 тепло 1020.2 1001.8
00 22.09 В 3 10 км ясно +14.8 +8.5 66 +14 +14 тепло 1020.5 1002.0
03 22.09 В 4 10 км ясно +13.6 +8.2 70 +12 +12 тепло 1020.4 1001.9
06 22.09 ЮВ 3 10 км ясно +19.4 +8.5 49 +20 +23 тепло 1019.9 1001.7 +13.0
09 22.09 ЮВ 5 10 км ясно +26.8 +7.9 30 +27 +31 жарко 1018.5 1000.8
12 22.09 ЮВ 4 10 км ясно +29.1 +6.0 23 +28 +32 жарко 1016.7 999.1
15 22.09 ЮВ 4 10 км ясно +26.3 +4.6 25 +25 +26 комфорт 1015.1 997.4
18 22.09 ЮВ 3 10 км ясно +19.8 +6.2 41 +21 +21 комфорт 1015.2 997.1 +29.4
21 22.09 ЮВ 4 10 км ясно +17.6 +6.8 49 +17 +17 тепло 1014.0 995.8
00 23.09 ЮВ 4 10 км ясно +15.0 +6.1 55 +14 +14 тепло 1012.9 994.6
03 23.09 Ю 2 10 км 8/0
[Ac trans Ci fib]
+14.6 +8.5 67 +14 +14 тепло 1012.2 993.9
06 23.09 СЗ 4 10 км 10/0
[Ac und]
+14.5 +9.0 70 +13 +14 тепло 1013.8 995.4 +14.1
09 23.09 СЗ 4 10 км слабый ливневой дождь 10/10 210 м
[Cb cap]
+12.2 +11.4 95 +10 +10 прохладно 1014.9 996.4
12 23.09 СЗ 4 10 км {ливн. осадки} 9/8 300 м
[Sc Ac trans]
+11.0 +8.6 85 +9 +9 очень
холодно
1016.2 997.6
15 23.09 З 3 10 км 9/9 840 м
[Sc]
+12.3 +8.3 77 +11 +11 прохладно 1016.5 997.9
18 23.09 З 2 10 км 3/3 1000 м
[Sc]
+8.8 +6.2 84 +7 +7 прохладно 1017.3 998.5 +14.5 5
21 23.09 штиль 0 10 км ясно +7.9 +5.9 87 +7 +7 прохладно 1017.9 999.0
00 24.09 штиль 0 10 км ясно +6.4 +5.0 91 +5 +5 прохладно 1017.8 998.8
03 24.09 ЮВ 3 10 км 6/0
[Ci fib]
+5.0 +4.1 94 +1 +1 очень
холодно
1016.5 997.4
06 24.09 ЮВ 3 10 км 8/0
[Ac trans Ci fib]
+9.5 +7.8 89 +7 +8 прохладно 1016.1 997.4 +4.4
09 24.09 Ю 8 10 км 8/6 1000 м
[Cu hum Ac trans]
+16.7 +7.8 56 +15 +16 тепло 1012.9 994.7
12 24.09 Ю 8 10 км 9/4 1000 м
[Sc Ac trans]
+16.3 +7.1 54 +15 +15 по сезону 1010.2 992.0
15 24.09 Ю 4 10 км слабый ливневой дождь 10/10 900 м
[Cb calv]
+15.0 +10.7 75 +14 +14 по сезону 1008.0 989.8
18 24.09 ЮЗ 2 8000 м слабый ливневой дождь 10/10 270 м
[Cb calv]
+13.4 +12.7 96 +13 +13 по сезону 1007.3 989.0 +17.2 9
21 24.09 З 5 10 км в посл. час ливневой дождь 9/8 330 м
[Cb cap Ac trans]
+10.6 +9.2 91 +8 +8 по сезону 1007.6 989.1
00 25.09 З 4 10 км в посл. час ливневой дождь 10/10 420 м
[Cb cap]
+9.6 +8.4 92 +7 +7 по сезону 1008.7 990.1
03 25.09 З 4 10 км 9/9 300 м
[Sc]
+9.0 +7.1 88 +6 +6 прохладно 1009.8 991.1
06 25.09 З 4 10 км 9/9 300 м
[Sc]
+9.3 +7.4 88 +6 +7 прохладно 1011.9 993.2 +8.8 5
09 25.09 З 5 10 км 9/9 1260 м
[Sc]
+11.9 +6.4 69 +10 +10 прохладно 1013.3 994.8
12 25.09 ЮЗ 4 10 км в посл. час ливневой дождь 8/8 600 м
[Cb cap]
+12.6 +7.5 71 +11 +12 холодно 1014.2 995.7
15 25.09 З 3 10 км в посл. час ливневой дождь 9/6 630 м
[Cb cap]
+10.1 +6.5 78 +8 +8 холодно 1016.4 997.7
18 25.09 З 3 10 км {ливн. осадки} 8/4 1000 м
[Sc Ac trans]
+8.1 +6.4 89 +5 +5 холодно 1019.0 1000.1 +12.8 0.8
21 25.09 З 3 10 км 8/0
[Ac trans]
+7.2 +6.1 93 +4 +4 холодно 1020.9 1001.9
00 26.09 СЗ 3 10 км 9/0
[Ac trans]
+6.4 +4.5 88 +3 +3 прохладно 1022.7 1003.6
03 26.09 СЗ 3 10 км 3/0
[Ac trans]
+5.2 +4.0 92 +2 +2 холодно 1024.8 1005.6
06 26.09 СЗ 4 10 км 5/5 270 м
[St]
+6.4 +3.8 83 +3 +3 холодно 1026.9 1007.7 +4.8

 

Местоположение метеостанции Харьков (Харьковская область, Украина): широта 49.97 долгота 36.13 высота над уровнем моря 155 м.

В архиве по умолчанию представлена погода в Харькове за последнюю неделю. Архивные данные за месяц целиком и за предыдущие месяцы, начиная с января 2011 года, Вы можете получить, выбрав интересующий диапазон дат из раскрывающегося списка и нажав кнопку "Ввод!".


*Определитесь, кто Вы:
робот инопланетянин человек

Внимание! Время в таблицах - всемирное. Для получения местного времени необходимо прибавить поправку, которая в Харькове равна 2 ч.

Смотрите также архив погоды в соседних городах и на ближайших метеорологических станциях:

Погода в Золочеве (Львовская область, Украина) (39 км)
Погода в Боходухове (Харьковская область, Украина) (50 км)
Погода в Слобожанском (Донецкая область, Украина) (50 км)
Погода в Коломаке (Харьковская область, Украина) (66 км)
Погода в Белгороде (Белгородская область, Россия) (80 км)
Погода в Краснограде (Харьковская область, Украина) (82 км)
Погода в Великом Бурлуке (Харьковская область, Украина) (90 км)
Погода в Готне (Белгородская область, Россия) (96 км)
Погода в Купянске (Харьковская область, Украина) (119 км)
Погода в Лозовой (Харьковская область, Украина) (120 км)

Пояснения к столбцам:

Ветер - указаны скорость ветра в м/с - средняя за 10 мин, порывы в срок и между сроками (в фигурных скобках) и направление, откуда дует ветер: С - северный, СВ - северо-восточный, В - восточный, ЮВ - юго-восточный, Ю - южный, ЮЗ - юго-западный, З - западный, СЗ - северо-западный.
Видимость - горизонтальная дальность видимости в метрах или километрах. При видимости от 1 до 10 км при отсутствии осадков обычно наблюдается дымка, при ухудшении видимости до 1 км и менее - туман. В сухую погоду видимость может ухудшаться дымом, пылью или мглою.
Явления - указаны атмосферные явления, наблюдавшиеся в срок или в последний час перед сроком; фигурными скобками обозначены явления, наблюдавшиеся между сроками (за 1-3 часа до срока); квадратными скобками обозначены град или гололедные отложения с указанием их диаметра в мм.
Облачность - указаны через наклонную черту общая и нижняя облачность в баллах и высота нижней границы облаков в метрах; квадратными скобками обозначены формы облаков: Ci - перистые, Cs - перисто-слоистые, Cc - перисто-кучевые, Ac - высококучевые, As - высокослоистые, Sc - слоисто-кучевые, Ns - слоисто-дождевые, Cu - кучевые, Cb - кучево-дождевые. Подробнее классификацию облаков см. в Атласе облаков (PDF).
T - Температура воздуха - температура, измеренная на высоте 2 м над землей.
Td - Температура точки росы - температура, при понижении до которой содержащийся в воздухе водяной пар достигнет насыщения.
f - Относительная влажность воздуха - влажноcть воздуха, измеренная на высоте 2 м над землей.
Te - Эффективная температура - температура, которую ощущает одетый по сезону человек в тени. Характеристика душности погоды. При расчете учитывается влияние влажности воздуха и скорости ветра на теплоощущения человека.
Tes - Эффективная температура на солнце - температура, которую ощущает человек, с поправкой на солнечный нагрев. Характеристика знойности погоды. Зависит от высоты солнца над горизонтом, облачности и скорости ветра. Ночью, в пасмурную погоду, а также при ветре 12 м/с и более поправка равна нулю.
P - Атмосферное давление - приведенное к уровню моря атмосферное давление.
Po - Атмосферное давление - измеренное на уровне метеостанции атмосферное давление.
Tmin - Минимальная температура - минимум температуры воздуха на высоте 2 м над землей.
Tmax - Максимальная температура - максимум температуры воздуха на высоте 2 м над землей.
R - Количество осадков - Количество выпавших осадков за период времени, мм. При наведении курсора мыши на число - период времени, за который выпало указанное количество осадков.
R24 - Количество осадков - Количество выпавших осадков за 24 часа, мм.
S - Снежный покров - Высота снежного покрова, см. При наведении курсора мыши на число - состояние снежного покрова и степень покрытия местности в баллах.